Weather History for Gonzales, LA

Change the Weather History Date:

Monday, September 9, 2013

  Actual Average (KBTR) Record (KBTR)
Temperature  
Mean Temperature 79 °F 80 °F  
Max Temperature 90 °F 90 °F 100 °F (1905)
Min Temperature 68 °F 71 °F 55 °F (2011)
Degree Days  
Heating Degree Days 0 0  
Month to date heating degree days 0  
Since 1 July heating degree days 0  
Cooling Degree Days 14 15  
Month to date cooling degree days 146  
Year to date cooling degree days 2307  
Growing Degree Days 29 (Base 50)    
Moisture  
Dew Point 72 °F    
Average Humidity 82    
Maximum Humidity 100    
Minimum Humidity 53    
Precipitation  
Precipitation 0.00 in 0.17 in 1.72 in (2001)
Month to date precipitation 1.47  
Year to date precipitation 43.18  
Snow  
Snow 0.00 in - - ()
Month to date snowfall  
Since 1 July snowfall  
Since 1 September snowfall  
Snow Depth -    
Sea Level Pressure  
Sea Level Pressure 30.00 in    
Wind  
Wind Speed 1 mph (ESE)    
Max Wind Speed 9 mph    
Max Gust Speed -    
Visibility 8 miles    
Events      
T = Trace of Precipitation, MM = Missing Value Source: NWS Daily Summary

Daily Weather History Graph

Daily Weather History Graph

Search for Another Location

Airport:

Trip Planner

Search our weather history database for the weather conditions in past years. The results will help you decide how hot, cold, wet, or windy it might be!

Date:

Astronomy

Sep. 09, 2013 Rise Set
Actual Time 6:45 AM CDT 7:16 PM CDT
Civil Twilight 6:21 AM CDT 7:40 PM CDT
Nautical Twilight 5:52 AM CDT 8:08 PM CDT
Astronomical Twilight 5:23 AM CDT 8:37 PM CDT
Moon 10:45 AM CDT (9/9) 9:56 PM CDT (9/9)
Length of Visible Light 13h 19m
Length of Day
12h 31m
Waxing Crescent, 19% of the Moon is Illuminated
Sep 9
Waxing Crescent
Sep 12
First Quarter
Sep 19
Full
Sep 26
Last Quarter
Oct 4
New

Hourly Weather History & Observations

Time (CDT) Temp. Heat Index Dew Point Humidity Pressure Visibility Wind Dir Wind Speed Gust Speed Precip Events Conditions
12:15 AM 71.1 °F - 70.7 °F 99% 29.97 in 5.0 mi Calm Calm - N/A   Clear
12:35 AM 70.7 °F - 70.2 °F 98% 29.97 in 7.0 mi Calm Calm - N/A   Clear
12:55 AM 70.7 °F - 70.2 °F 98% 29.97 in 7.0 mi Calm Calm - N/A   Clear
1:15 AM 70.7 °F - 70.3 °F 99% 29.96 in 7.0 mi Calm Calm - N/A   Clear
1:35 AM 70.9 °F - 70.3 °F 98% 29.96 in 7.0 mi Calm Calm - N/A   Clear
1:55 AM 70.7 °F - 70.0 °F 98% 29.96 in 7.0 mi Calm Calm - N/A   Clear
2:15 AM 70.7 °F - 70.2 °F 98% 29.96 in 7.0 mi Calm Calm - N/A   Clear
2:35 AM 70.5 °F - 70.0 °F 98% 29.96 in 7.0 mi Calm Calm - N/A   Clear
2:55 AM 70.7 °F - 70.2 °F 98% 29.95 in 7.0 mi Calm Calm - N/A   Clear
3:15 AM 70.0 °F - 69.6 °F 99% 29.96 in 10.0 mi Calm Calm - N/A   Clear
3:35 AM 70.3 °F - 69.8 °F 98% 29.96 in 10.0 mi Calm Calm - N/A   Clear
3:55 AM 69.6 °F - 69.1 °F 98% 29.96 in 4.0 mi Calm Calm - N/A   Clear
4:15 AM 69.3 °F - 68.9 °F 99% 29.96 in 4.0 mi Calm Calm - N/A   Clear
4:35 AM 68.9 °F - 68.9 °F 100% 29.97 in 3.0 mi Calm Calm - N/A   Clear
4:55 AM 69.4 °F - 69.1 °F 99% 29.97 in 7.0 mi Calm Calm - N/A   Clear
5:15 AM 69.1 °F - 68.7 °F 99% 29.97 in 5.0 mi Calm Calm - N/A   Clear
5:35 AM 69.8 °F - 69.4 °F 99% 29.98 in 7.0 mi Calm Calm - N/A   Clear
5:55 AM 69.1 °F - 68.9 °F 99% 29.98 in 4.0 mi Calm Calm - N/A   Clear
6:15 AM 69.4 °F - 68.9 °F 98% 29.98 in 5.0 mi Calm Calm - N/A   Clear
6:35 AM 69.8 °F - 69.1 °F 98% 29.99 in 5.0 mi Calm Calm - N/A   Clear
6:55 AM 69.3 °F - 68.9 °F 99% 30.00 in 4.0 mi Calm Calm - N/A   Clear
7:15 AM 70.0 °F - 69.3 °F 98% 30.00 in 4.0 mi Calm Calm - N/A   Clear
7:35 AM 70.7 °F - 69.8 °F 97% 30.01 in 4.0 mi Calm Calm - N/A   Clear
7:55 AM 72.7 °F - 70.7 °F 93% 30.01 in 5.0 mi Calm Calm - N/A   Clear
8:15 AM 74.3 °F - 70.9 °F 89% 30.02 in 7.0 mi Calm Calm - N/A   Clear
8:35 AM 76.3 °F - 72.0 °F 86% 30.03 in 10.0 mi Calm Calm - N/A   Clear
8:55 AM 77.7 °F - 72.3 °F 83% 30.03 in 10.0 mi Calm Calm - N/A   Clear
9:15 AM 79.2 °F - 73.6 °F 83% 30.04 in 10.0 mi Calm Calm - N/A   Clear
9:35 AM 80.8 °F 85.9 °F 73.9 °F 80% 30.04 in 10.0 mi Calm Calm - N/A   Clear
9:55 AM 82.4 °F 88.7 °F 74.3 °F 76% 30.04 in 10.0 mi East 3.5 mph - N/A   Clear
10:15 AM 83.3 °F 90.5 °F 74.5 °F 75% 30.04 in 10.0 mi NNE 3.5 mph - N/A   Clear
10:55 AM 84.6 °F 92.1 °F 74.1 °F 71% 30.04 in 10.0 mi ESE 4.6 mph - N/A   Scattered Clouds
11:15 AM 86.0 °F 94.2 °F 74.3 °F 68% 30.04 in 10.0 mi East 5.8 mph - N/A   Scattered Clouds
11:35 AM 86.4 °F 94.2 °F 73.9 °F 66% 30.04 in 10.0 mi ESE 5.8 mph - N/A   Scattered Clouds
11:55 AM 86.0 °F 93.0 °F 73.0 °F 65% 30.04 in 10.0 mi ESE 5.8 mph - N/A   Scattered Clouds
12:15 PM 87.3 °F 94.5 °F 72.9 °F 62% 30.03 in 10.0 mi ENE 4.6 mph - N/A   Scattered Clouds
12:35 PM 88.3 °F 95.4 °F 72.5 °F 59% 30.03 in 10.0 mi ESE 4.6 mph - N/A   Scattered Clouds
12:55 PM 88.7 °F 95.2 °F 71.8 °F 57% 30.03 in 10.0 mi SE 5.8 mph - N/A   Scattered Clouds
1:15 PM 88.3 °F 95.9 °F 73.0 °F 60% 30.03 in 10.0 mi SE 5.8 mph - N/A   Mostly Cloudy
1:35 PM 89.8 °F 95.6 °F 70.5 °F 53% 30.02 in 10.0 mi Calm Calm - N/A   Scattered Clouds
1:55 PM 90.3 °F 97.7 °F 72.3 °F 55% 30.02 in 10.0 mi SE 4.6 mph - N/A   Mostly Cloudy
2:15 PM 90.0 °F 96.4 °F 71.4 °F 54% 30.01 in 10.0 mi Calm Calm - N/A   Overcast
2:55 PM 89.1 °F 96.0 °F 72.1 °F 57% 30.00 in 10.0 mi East 3.5 mph - N/A   Mostly Cloudy
3:15 PM 87.6 °F 95.2 °F 73.0 °F 62% 30.00 in 10.0 mi ESE 5.8 mph - N/A   Overcast
3:35 PM 87.3 °F 95.3 °F 73.6 °F 64% 29.99 in 10.0 mi East 4.6 mph - N/A   Overcast
3:55 PM 88.2 °F 96.4 °F 73.6 °F 62% 29.99 in 10.0 mi East 5.8 mph - N/A   Scattered Clouds
4:15 PM 89.6 °F 97.2 °F 72.3 °F 57% 29.99 in 10.0 mi ESE 5.8 mph - N/A   Scattered Clouds
4:35 PM 88.3 °F 94.5 °F 71.4 °F 57% 29.99 in 10.0 mi ESE 9.2 mph - N/A   Scattered Clouds
4:55 PM 88.9 °F 95.1 °F 71.4 °F 56% 29.98 in 10.0 mi ESE 5.8 mph - N/A   Clear
5:15 PM 88.9 °F 94.7 °F 70.9 °F 55% 29.98 in 10.0 mi ESE 3.5 mph - N/A   Clear
5:35 PM 89.1 °F 96.0 °F 72.1 °F 57% 29.98 in 10.0 mi East 3.5 mph - N/A   Clear
5:55 PM 88.0 °F 94.7 °F 72.1 °F 59% 29.98 in 10.0 mi Calm Calm - N/A   Clear
6:15 PM 87.1 °F 92.4 °F 70.5 °F 58% 29.99 in 10.0 mi Calm Calm - N/A   Scattered Clouds
6:35 PM 86.4 °F 91.4 °F 70.7 °F 59% 29.99 in 10.0 mi Calm Calm - N/A   Clear
6:55 PM 85.8 °F 91.1 °F 71.1 °F 61% 29.99 in 10.0 mi East 3.5 mph - N/A   Clear
7:15 PM 84.6 °F 90.0 °F 71.6 °F 65% 29.99 in 10.0 mi Calm Calm - N/A   Clear
7:35 PM 78.6 °F - 74.3 °F 87% 29.99 in 10.0 mi Calm Calm - N/A   Clear
7:55 PM 78.1 °F - 73.8 °F 86% 29.99 in 10.0 mi Calm Calm - N/A   Clear
8:15 PM 77.2 °F - 73.8 °F 89% 29.99 in 10.0 mi Calm Calm - N/A   Clear
8:35 PM 76.6 °F - 73.4 °F 90% 30.00 in 10.0 mi Calm Calm - N/A   Clear
8:55 PM 75.7 °F - 73.4 °F 92% 30.01 in 10.0 mi Calm Calm - N/A   Clear
9:15 PM 75.7 °F - 73.4 °F 92% 30.01 in 10.0 mi Calm Calm - N/A   Clear
9:35 PM 74.7 °F - 72.9 °F 94% 30.01 in 10.0 mi Calm Calm - N/A   Clear
9:55 PM 74.8 °F - 72.9 °F 94% 30.02 in 10.0 mi Calm Calm - N/A   Clear
10:15 PM 74.5 °F - 72.5 °F 94% 30.02 in 10.0 mi Calm Calm - N/A   Clear
10:35 PM 73.4 °F - 72.1 °F 96% 30.02 in 7.0 mi Calm Calm - N/A   Clear
10:55 PM 73.0 °F - 72.0 °F 96% 30.02 in 7.0 mi Calm Calm - N/A   Clear
11:15 PM 73.2 °F - 72.1 °F 96% 30.02 in 7.0 mi Calm Calm - N/A   Clear
11:35 PM 73.4 °F - 72.0 °F 95% 30.02 in 10.0 mi Calm Calm - N/A   Clear
11:55 PM 72.9 °F - 71.6 °F 96% 30.01 in 7.0 mi Calm Calm - N/A   Clear